Location: Maccacari
(45.1333°N, 11.1333°E)
Time: 16:45:20
(UTC+00:00)

SR - Pass Details

Date: 23 June 2021
Orbit: 577 x 878 km, 66.7° (Epoch: 24 July)

Event Time Altitude Azimuth Distance (km) Brightness Sun altitude
Rises 20:57:40 0° 332° (NNW) 3,364 ? -14.4°
Reaches altitude 10° 21:02:03 10° 4° (N) 2,355 ? -14.8°
Maximum altitude 21:03:57 12° 24° (NNE) 2,199 ? -15.0°
Drops below altitude 10° 21:05:48 10° 45° (NE) 2,282 ? -15.1°
Sets 21:09:51 0° 78° (ENE) 3,117 ? -15.5°
